Zurück zum Katalog

COSMOS 2251 DEB

AktivLEO
NORAD 47073·DEBRIS·🇷🇺 Russia

Gestartet Jun 16, 1993 von Plesetsk Cosmodrome

Loading…

Nächste Überflüge (nächste 24 Stunden)

TLE

VeraltetSource: Space-Track

Epoche: Aug 16, 2026, 10:59 UTC

1 47073U 93036BYD 26228.45814955  .00000348  00000-0  20486-3 0  9991
2 47073  74.0832 132.4380 0160353 110.9689 250.8690 14.05141773638268

Verfolge COSMOS 2251 DEB in Echtzeit mit AllMySat

Download on the App Store